Total_Precipitation_Accumulation
0.21 0.16 0.16 0.18 0.17 0.17 0.26 0.25 0.15 0.06 0.06 0.06 0.06 0.05 0.05 0.06 0.04 0.02 0.02 0.01 0.01 0.00 0.00 0.00 0.00 0.00 0.01 0.00 0.01 0.01 0.01 0.01 0.01 0.02 0.02 0.02 0.02 0.02 0.03 0.03 0.02 0.03 0.03 0.03
0.16 0.12 0.12 0.12 0.10 0.11 0.12 0.10 0.08 0.05 0.05 0.05 0.06 0.06 0.06 0.07 0.06 0.04 0.04 0.02 0.01 0.01 0.01 0.00 0.00 0.00 0.01 0.01 0.01 0.01 0.01 0.01 0.01 0.02 0.02 0.02 0.02 0.02 0.02 0.03 0.03 0.03 0.03 0.03
0.23 0.13 0.21 0.21 0.10 0.09 0.08 0.07 0.08 0.08 0.05 0.05 0.06 0.06 0.07 0.09 0.06 0.05 0.04 0.03 0.02 0.01 0.01 0.01 0.01 0.00 0.01 0.01 0.01 0.00 0.00 0.01 0.01 0.01 0.02 0.02 0.03 0.03 0.03 0.03 0.03 0.03 0.03 0.03
0.36 0.29 0.45 0.18 0.06 0.06 0.07 0.07 0.08 0.07 0.06 0.05 0.06 0.06 0.07 0.09 0.07 0.04 0.03 0.03 0.03 0.02 0.01 0.01 0.01 0.01 0.01 0.01 0.01 0.01 0.00 0.01 0.01 0.01 0.02 0.03 0.03 0.03 0.03 0.03 0.04 0.03 0.03 0.03
0.54 0.44 0.26 0.10 0.08 0.08 0.09 0.12 0.09 0.07 0.06 0.05 0.04 0.05 0.06 0.05 0.05 0.04 0.04 0.03 0.03 0.02 0.02 0.01 0.01 0.02 0.02 0.02 0.02 0.01 0.00 0.00 0.00 0.01 0.02 0.03 0.03 0.03 0.04 0.04 0.04 0.04 0.03 0.02
0.57 0.45 0.21 0.13 0.09 0.07 0.09 0.19 0.10 0.08 0.08 0.07 0.06 0.06 0.06 0.04 0.03 0.03 0.03 0.03 0.02 0.02 0.02 0.02 0.02 0.02 0.02 0.02 0.02 0.01 0.00 0.01 0.01 0.01 0.01 0.01 0.02 0.03 0.04 0.04 0.04 0.04 0.03 0.02
0.47 0.34 0.13 0.12 0.12 0.11 0.19 0.23 0.12 0.08 0.08 0.08 0.08 0.08 0.06 0.04 0.03 0.03 0.03 0.03 0.03 0.03 0.03 0.02 0.02 0.02 0.02 0.02 0.02 0.01 0.01 0.01 0.01 0.01 0.01 0.01 0.03 0.04 0.04 0.04 0.05 0.04 0.03 0.03
0.35 0.32 0.16 0.14 0.17 0.24 0.24 0.13 0.09 0.07 0.07 0.06 0.06 0.05 0.05 0.04 0.03 0.03 0.02 0.02 0.03 0.03 0.03 0.02 0.02 0.02 0.02 0.03 0.02 0.02 0.01 0.01 0.01 0.01 0.01 0.02 0.04 0.05 0.05 0.05 0.05 0.05 0.04 0.04
0.26 0.17 0.12 0.13 0.19 0.20 0.13 0.08 0.05 0.05 0.05 0.05 0.05 0.05 0.05 0.04 0.03 0.03 0.03 0.03 0.03 0.03 0.04 0.03 0.02 0.02 0.02 0.03 0.03 0.03 0.02 0.02 0.02 0.02 0.03 0.04 0.04 0.05 0.05 0.06 0.08 0.06 0.06 0.06
0.17 0.09 0.08 0.10 0.13 0.13 0.09 0.05 0.04 0.04 0.04 0.04 0.04 0.05 0.05 0.05 0.04 0.03 0.03 0.03 0.03 0.03 0.04 0.04 0.03 0.02 0.02 0.02 0.03 0.03 0.03 0.02 0.02 0.03 0.04 0.05 0.05 0.05 0.06 0.09 0.16 0.13 0.10 0.09
0.14 0.07 0.08 0.08 0.08 0.08 0.06 0.04 0.04 0.03 0.02 0.03 0.03 0.04 0.05 0.05 0.04 0.03 0.04 0.04 0.03 0.03 0.04 0.04 0.03 0.02 0.02 0.03 0.03 0.03 0.03 0.03 0.04 0.04 0.06 0.07 0.07 0.06 0.07 0.09 0.18 0.21 0.17 0.17
0.09 0.05 0.06 0.07 0.06 0.05 0.04 0.04 0.04 0.03 0.02 0.02 0.03 0.04 0.04 0.04 0.03 0.03 0.04 0.04 0.03 0.03 0.04 0.04 0.03 0.03 0.03 0.03 0.03 0.04 0.04 0.04 0.05 0.06 0.06 0.07 0.07 0.07 0.08 0.08 0.10 0.11 0.13 0.17
0.03 0.04 0.05 0.05 0.04 0.04 0.03 0.03 0.03 0.03 0.03 0.02 0.02 0.03 0.04 0.04 0.03 0.03 0.03 0.04 0.03 0.02 0.03 0.04 0.04 0.03 0.03 0.03 0.03 0.04 0.03 0.04 0.05 0.06 0.06 0.07 0.07 0.07 0.08 0.07 0.07 0.07 0.08 0.11
0.03 0.03 0.04 0.03 0.03 0.03 0.03 0.03 0.03 0.03 0.03 0.03 0.03 0.03 0.04 0.04 0.03 0.03 0.03 0.03 0.03 0.02 0.03 0.03 0.04 0.04 0.04 0.04 0.04 0.04 0.03 0.04 0.06 0.06 0.07 0.07 0.07 0.08 0.09 0.11 0.10 0.06 0.05 0.07
0.03 0.04 0.04 0.03 0.03 0.03 0.02 0.03 0.03 0.04 0.04 0.03 0.03 0.02 0.03 0.03 0.03 0.03 0.03 0.03 0.02 0.02 0.02 0.03 0.04 0.04 0.05 0.04 0.05 0.05 0.04 0.04 0.05 0.06 0.07 0.07 0.08 0.09 0.10 0.11 0.11 0.09 0.07 0.07
0.04 0.05 0.05 0.04 0.04 0.03 0.03 0.03 0.03 0.03 0.04 0.03 0.03 0.02 0.02 0.03 0.02 0.03 0.03 0.03 0.03 0.02 0.02 0.03 0.04 0.04 0.05 0.04 0.05 0.06 0.05 0.06 0.06 0.07 0.07 0.08 0.09 0.12 0.13 0.14 0.14 0.13 0.13 0.12
0.08 0.08 0.07 0.07 0.05 0.04 0.03 0.03 0.02 0.03 0.03 0.03 0.03 0.02 0.02 0.03 0.02 0.03 0.03 0.03 0.03 0.03 0.02 0.03 0.03 0.04 0.05 0.04 0.05 0.06 0.06 0.06 0.08 0.08 0.08 0.10 0.13 0.16 0.18 0.20 0.21 0.18 0.14 0.15
0.09 0.09 0.07 0.07 0.06 0.05 0.04 0.03 0.02 0.03 0.03 0.03 0.02 0.02 0.02 0.03 0.03 0.03 0.03 0.04 0.04 0.04 0.04 0.03 0.03 0.04 0.04 0.04 0.05 0.06 0.07 0.06 0.07 0.09 0.11 0.13 0.16 0.19 0.22 0.23 0.22 0.21 0.18 0.16
0.06 0.07 0.05 0.05 0.06 0.05 0.05 0.05 0.03 0.03 0.03 0.02 0.02 0.02 0.02 0.02 0.03 0.03 0.03 0.04 0.04 0.04 0.04 0.03 0.03 0.04 0.04 0.05 0.05 0.06 0.08 0.10 0.12 0.13 0.13 0.17 0.19 0.18 0.20 0.22 0.24 0.24 0.23 0.22
0.06 0.06 0.05 0.05 0.05 0.05 0.06 0.06 0.04 0.03 0.02 0.02 0.03 0.02 0.02 0.02 0.03 0.04 0.04 0.04 0.04 0.04 0.04 0.03 0.03 0.03 0.04 0.05 0.07 0.07 0.11 0.15 0.18 0.17 0.18 0.20 0.22 0.22 0.22 0.24 0.26 0.26 0.24 0.24
0.06 0.06 0.05 0.05 0.05 0.06 0.07 0.07 0.05 0.04 0.03 0.03 0.03 0.03 0.03 0.02 0.03 0.05 0.04 0.04 0.04 0.05 0.04 0.03 0.03 0.04 0.04 0.08 0.11 0.11 0.14 0.18 0.20 0.21 0.24 0.26 0.27 0.27 0.26 0.26 0.27 0.27 0.27 0.26
0.06 0.07 0.06 0.05 0.06 0.07 0.07 0.07 0.07 0.06 0.05 0.04 0.04 0.04 0.04 0.04 0.04 0.05 0.05 0.04 0.04 0.05 0.05 0.04 0.03 0.05 0.09 0.13 0.12 0.12 0.15 0.18 0.21 0.25 0.29 0.31 0.35 0.36 0.32 0.29 0.31 0.30 0.28 0.27
0.07 0.07 0.07 0.08 0.08 0.08 0.07 0.07 0.07 0.07 0.06 0.06 0.06 0.06 0.06 0.06 0.05 0.06 0.07 0.06 0.06 0.07 0.06 0.05 0.06 0.09 0.14 0.14 0.12 0.13 0.16 0.20 0.25 0.30 0.33 0.36 0.38 0.39 0.38 0.35 0.33 0.32 0.32 0.30
0.08 0.07 0.08 0.09 0.10 0.11 0.09 0.08 0.08 0.09 0.09 0.10 0.08 0.07 0.07 0.07 0.07 0.07 0.08 0.09 0.09 0.09 0.08 0.09 0.11 0.13 0.16 0.16 0.16 0.18 0.22 0.27 0.31 0.37 0.41 0.42 0.41 0.40 0.38 0.37 0.34 0.31 0.29 0.29
0.10 0.09 0.09 0.10 0.12 0.13 0.13 0.11 0.10 0.11 0.11 0.12 0.11 0.09 0.09 0.09 0.10 0.10 0.10 0.11 0.11 0.11 0.12 0.14 0.15 0.17 0.17 0.20 0.23 0.27 0.31 0.35 0.42 0.50 0.52 0.48 0.44 0.41 0.37 0.34 0.33 0.31 0.30 0.28
0.14 0.14 0.13 0.14 0.15 0.15 0.15 0.14 0.13 0.12 0.12 0.12 0.13 0.13 0.14 0.14 0.14 0.14 0.14 0.15 0.15 0.16 0.16 0.17 0.17 0.20 0.23 0.28 0.33 0.36 0.40 0.43 0.47 0.47 0.44 0.43 0.42 0.40 0.35 0.32 0.30 0.30 0.28 0.25
0.18 0.18 0.18 0.19 0.19 0.19 0.18 0.18 0.19 0.18 0.16 0.16 0.17 0.17 0.18 0.18 0.19 0.19 0.19 0.20 0.20 0.20 0.21 0.20 0.21 0.25 0.31 0.37 0.41 0.44 0.46 0.48 0.48 0.47 0.44 0.43 0.42 0.39 0.34 0.32 0.31 0.28 0.26 0.22